Location: Bonaustraße
(48.4603°N, 11.9280°E)
Time: 03:55:04
(UTC+01:00)

Envisat - Pass Details

Date: 26 January 2021
Orbit: 764 x 766 km, 98.1° (Epoch: 05 March)

Event Time Altitude Azimuth Distance (km) Brightness Sun altitude
Rises 17:53:59 0° 194° (SSW) 3,220 6.7 -8.8°
Reaches altitude 10° 17:56:33 10° 206° (SSW) 2,299 6.1 -9.2°
Maximum altitude 18:00:56 29° 266° (W) 1,370 5.2 -9.9°
Drops below altitude 10° 18:05:23 10° 326° (NNW) 2,314 5.7 -10.6°
Sets 18:07:59 0° 338° (NNW) 3,245 6.3 -11.0°
